OBJECT YL, 69796

Orbit data source: Space-Track

You're viewing an uncataloged RSO

Recently launched and/or uncataloged RSOs may have evolving metadata. Metadata may include the following, but is not limited to: Owner, Manufacturer, Bus, Motor, and Mission.

OBJECT YL, 69796 is a satellite in LEO that was delivered to and deployed from the ISS. Unknown objects in Earth's orbit typically refer to objects detected orbiting the Earth but have not yet been identified or cataloged. These objects could be anything from previously untracked satellites, spent rocket stages, debris from satellite collisions, or even natural meteoroids temporarily captured by Earth's gravity.

Loading next visibility...
Identifier
69796, 1998-067YL
Orbit
LEO
Country
Flag of TBDTBD
Related business
Manufacturer
HARV
Mission
Operational spacecraft
Bus & Motor
CUBESAT 2U, Unknown motor
Mass
~2 kg wet, ~2 kg dry
Launch date (UTC)
1998-11-20 (28 years ago)
Launch vehicle
FALCON 9
Launch site
Tyuratam Missile And Space Complex (TTMTR)
Object type
Unknown
Shape & HBR
BOX, 0.1 m
Radar Cross Section
Medium (>0.1 m² and <1 m²)

Expand to show TLE details & history
Last TLE update: 10 hours ago

TLE from 10 hours ago
0 OBJECT YL
1 69796U 98067YL  26253.97092040  .00041855  00000-0  61265-3 0  9992
2 69796  51.6286 233.9019 0009154 133.6557 226.5195 15.55118725 10969
Epoch: 2026-09-10T23:18Z
TLE epoch observation values (Epoch: 2026-09-10T23:18:07.522Z)
Latitude
0.00003°
Longitude
-105.6304°
Altitude
406.823 km
Speed
7.666 km/s
True Right ascension
15h 35m 36s
True Declination
0° 00' 00"
Sunlit
Object was in daylight at epoch
Visualization orbit readout
Latitude
Unknown
Longitude
Unknown
Altitude
Unknown
Speed
Unknown
Apparent Right ascension
Unknown
Apparent Declination
Unknown
Sunlit
N/A
Visualization observer readout
Local Sidereal Time
01:48:09
Azimuth
Unknown
Elevation
Unknown
Doppler factor
Unknown
Orbital elements
Apogee altitude
408.525 km
Perigee altitude
396.112 km
Semi-major axis
6,780.455 km
Eccentricity
0.00092
Inclination
51.6286°
RAAN
233.9019°
Arg. of periapsis
133.6557°
True anomaly
226.44345°
Mean anomaly
226.5195°
Eccentric anomaly
226.48147°
Mean motion
3.88736 °/min
Orbital period
92.61 mins
BSTAR
0.00061265
Loading maneuver chart data...
Computing Atmospheric mass density...

Documentation

Showing up to 5 results
|